GFSCGP_925_temp_366.txt.gz
Temp
27 30 30 33 37 40 40 40 40 41 41 40 40 39 39 39 39 38 38 37 36 36 37 36 35 35 34 33 32 30 30 29 29 28 26 26 27 27 28 28 28 29 28 27
29 29 34 35 40 40 39 38 40 40 41 40 41 40 40 40 39 40 39 38 38 37 37 36 35 35 35 34 32 31 30 29 29 28 28 28 28 28 29 29 29 29 28 28
27 31 35 39 39 39 37 36 40 40 41 42 40 39 39 40 40 40 40 40 39 38 38 37 36 35 35 35 33 31 30 30 29 28 28 28 28 28 29 29 29 29 28 28
25 31 36 41 38 39 35 39 41 41 40 38 41 37 37 39 39 39 40 40 40 40 39 39 37 36 36 35 34 33 31 30 29 28 28 28 28 28 28 29 29 29 28 27
31 36 39 41 41 41 39 42 42 38 35 29 36 35 37 39 39 39 40 40 41 41 40 40 39 38 37 36 36 34 32 30 30 29 28 28 28 28 29 29 30 29 28 27
39 40 40 41 42 42 42 41 41 40 36 34 36 34 36 38 39 39 41 41 41 41 41 41 40 39 38 38 37 36 33 31 30 30 28 28 28 28 28 28 28 28 28 27
33 35 41 42 41 42 42 40 39 38 36 38 40 39 38 39 40 40 41 42 42 42 42 41 40 39 39 38 38 37 33 31 30 29 29 28 27 27 26 26 26 26 27 28
29 36 40 42 41 40 41 41 39 35 38 40 41 38 38 40 40 41 42 43 43 42 43 42 42 41 39 38 38 37 32 30 30 29 28 27 27 26 26 26 26 26 27 27
30 35 42 42 42 42 41 40 42 41 42 40 39 40 40 40 41 42 42 42 42 43 43 43 43 41 40 38 37 35 31 30 29 28 27 27 26 26 26 27 26 26 26 26
38 37 42 42 43 42 42 42 41 41 38 37 39 38 37 40 41 41 41 42 42 42 42 42 40 32 41 39 35 34 31 29 28 28 27 26 26 25 25 25 25 25 25 25
32 32 40 42 41 41 41 41 42 42 41 39 39 38 41 41 41 41 41 41 41 41 40 40 40 40 39 38 35 33 31 30 29 28 27 27 26 25 25 25 24 24 24 24
41 39 39 40 43 42 42 41 41 39 39 40 40 40 43 42 42 42 41 41 40 40 40 39 38 38 38 34 33 31 31 29 29 28 27 26 26 26 26 26 25 25 24 24
41 41 40 40 41 42 41 41 41 41 41 39 38 39 41 42 42 41 41 40 39 39 39 38 37 36 37 34 32 32 30 30 29 28 27 27 27 26 26 26 25 25 24 23
38 41 40 39 36 41 40 41 41 41 39 39 39 40 41 39 39 39 39 39 38 38 37 38 36 35 34 34 32 32 31 31 30 28 28 28 27 27 27 27 26 25 24 23
40 39 40 40 41 41 40 40 41 40 40 39 39 39 37 37 37 37 38 38 38 37 37 37 37 36 34 34 33 32 32 31 31 29 29 29 29 28 27 26 25 24 24 23
42 39 40 39 40 40 39 40 40 40 40 40 40 36 37 37 37 36 36 37 35 35 35 35 35 36 35 33 33 32 32 31 31 31 30 29 28 28 27 26 25 24 23 22
40 39 38 37 39 39 38 40 40 40 40 39 38 36 36 35 35 35 36 35 34 34 35 34 34 34 35 33 28 25 29 31 31 30 30 29 28 27 27 26 25 24 23 22
40 39 39 37 38 35 39 41 40 39 39 39 37 36 35 35 35 35 35 34 34 34 34 34 33 33 33 30 29 30 30 30 30 30 30 29 28 28 27 26 25 24 23 22
41 39 37 36 36 37 38 39 38 37 37 36 35 35 35 34 34 35 33 34 34 34 34 33 33 32 30 30 29 29 28 28 28 28 28 28 28 28 27 26 25 25 23 23
41 40 38 37 35 34 37 38 38 38 35 35 34 33 33 33 31 32 33 34 34 33 32 31 31 31 30 28 28 28 28 28 27 27 27 27 26 26 26 26 25 23 19 21
36 37 37 37 36 37 35 37 37 33 31 33 33 32 32 31 31 32 33 32 32 31 31 30 30 29 29 28 27 27 27 26 26 26 26 26 25 25 25 25 25 23 22 22
37 36 36 36 35 34 35 36 32 32 32 32 32 32 32 32 32 32 31 31 30 30 29 29 29 28 27 27 27 26 25 25 25 24 24 24 24 24 24 24 24 23 21 18
36 37 36 35 35 36 35 34 33 32 31 31 31 32 32 32 31 31 30 29 29 29 28 28 28 26 26 26 25 25 24 24 24 23 23 23 23 23 23 23 23 22 20 18
37 35 35 35 36 35 34 34 31 31 30 31 31 31 31 31 30 30 29 28 28 28 27 27 26 26 25 25 24 24 24 24 23 22 22 22 21 21 21 22 21 21 21 21
36 36 34 33 34 32 33 31 30 30 30 31 31 31 30 30 30 29 28 27 27 27 26 25 25 25 25 24 24 24 24 23 22 22 21 21 20 19 19 21 21 20 21 22
36 32 33 32 31 30 30 30 31 30 30 29 30 29 29 29 29 29 28 27 27 26 26 25 25 25 25 25 24 24 23 22 22 21 21 20 19 20 19 20 20 20 20 21

GFSCGP_925_temp_369.txt.gz
Temp
26 26 26 28 34 35 36 34 30 35 38 35 33 33 33 33 32 34 32 31 31 31 32 34 34 34 32 32 31 30 30 29 28 27 26 26 25 26 26 26 27 28 28 27
27 27 31 34 35 35 36 36 36 38 39 38 33 31 34 34 35 35 34 33 33 32 31 32 34 34 32 32 31 31 30 30 28 28 27 26 26 26 27 27 27 28 28 28
26 30 33 34 34 36 37 36 35 36 39 37 35 31 35 36 36 36 35 34 34 34 32 32 32 33 33 32 31 31 30 30 29 28 27 27 27 27 27 27 28 28 28 28
28 32 33 35 35 37 36 38 38 40 35 33 35 31 35 36 36 36 37 35 35 34 34 33 32 32 33 32 32 31 30 30 29 29 28 28 27 26 28 28 28 29 29 28
32 33 36 37 36 38 38 39 38 38 34 32 30 28 31 36 35 35 35 35 35 35 35 34 33 33 34 33 31 31 31 30 29 29 28 28 27 27 28 28 28 29 29 29
34 36 37 37 40 41 40 39 37 33 31 29 30 30 31 33 35 35 35 36 36 35 36 35 35 34 34 34 33 31 30 31 29 29 28 28 27 28 27 28 28 27 27 28
34 35 37 39 38 39 40 36 32 31 30 30 32 32 32 34 36 38 36 35 36 35 35 34 35 34 34 34 34 32 31 29 29 29 28 28 28 27 27 27 27 27 27 27
29 31 37 40 39 39 37 36 32 34 34 32 34 33 35 36 37 38 39 38 37 36 35 34 36 35 35 36 35 31 31 29 28 28 29 29 28 28 27 27 26 26 26 26
30 32 36 41 41 40 38 35 37 35 35 29 34 36 37 37 37 37 39 37 38 35 34 31 31 34 32 32 34 32 31 29 29 29 29 29 28 27 27 26 26 26 26 26
32 32 34 40 40 39 40 38 34 31 34 33 33 34 32 35 35 37 40 35 33 33 32 27 27 28 28 32 31 31 29 29 30 30 28 28 27 27 26 26 26 26 26 26
31 31 34 36 38 37 36 34 35 33 32 31 32 30 35 35 36 37 35 35 33 34 33 31 27 27 30 31 29 29 29 29 29 28 28 27 27 26 26 26 26 25 25 25
33 30 28 34 39 41 40 38 35 30 32 32 30 32 36 39 37 34 33 33 33 33 33 33 32 31 31 29 29 28 29 29 28 28 28 27 26 26 25 25 25 25 25 25
34 32 33 34 35 36 38 39 39 35 32 33 31 33 37 34 33 33 32 32 31 31 30 29 30 29 30 29 29 29 29 29 28 28 27 27 26 26 25 25 25 25 25 25
35 35 34 33 34 36 37 37 38 37 32 32 33 31 32 31 32 31 31 30 30 29 29 28 29 29 28 30 30 30 29 28 28 28 27 27 26 26 26 26 26 26 25 25
37 35 36 37 38 38 38 37 37 36 36 35 33 30 30 30 30 31 30 30 30 29 29 28 28 27 30 30 25 22 21 22 23 22 27 27 27 27 27 27 26 26 25 25
36 33 35 38 36 36 36 37 37 37 36 32 32 30 31 31 30 29 29 29 29 29 29 29 29 28 24 21 21 25 27 26 24 23 20 26 28 28 28 28 27 26 25 25
37 33 32 34 35 36 34 36 37 35 35 32 30 31 30 30 30 29 28 29 29 29 29 27 26 25 24 22 26 24 25 25 22 21 21 23 27 28 28 28 27 26 26 25
36 33 31 31 33 33 34 36 37 33 34 32 31 31 30 29 30 28 28 29 29 29 27 26 25 26 26 26 25 26 24 24 22 21 24 28 26 27 27 27 27 26 26 25
34 33 32 30 31 33 34 34 35 33 30 31 30 30 29 29 29 30 28 29 26 26 26 27 28 27 27 27 26 26 26 26 25 25 25 25 25 25 25 25 25 25 25 24
29 28 29 25 24 22 29 34 35 34 26 30 29 28 28 28 25 25 27 27 26 27 27 27 28 28 26 26 26 25 25 25 25 24 24 24 24 24 23 23 23 23 23 22
25 24 24 24 25 27 32 32 34 31 27 29 28 28 29 27 26 27 27 26 27 27 27 27 27 26 26 26 25 24 24 24 24 24 24 23 23 23 22 22 22 22 22 22
29 27 29 27 30 30 34 32 28 26 27 27 28 28 28 27 28 27 26 25 25 24 26 27 26 25 25 25 25 24 23 24 24 23 23 23 22 22 21 21 21 20 21 20
30 31 29 31 29 28 28 27 27 27 27 28 28 28 28 26 27 26 25 24 24 25 26 26 25 25 25 25 25 24 24 24 23 23 22 22 21 21 20 20 19 18 19 20
34 33 29 29 28 28 27 27 27 28 28 28 28 27 26 26 25 25 24 24 24 25 25 25 25 24 24 25 25 24 24 24 23 22 22 21 20 20 20 19 18 17 18 19
31 31 31 27 27 27 27 27 28 28 29 27 27 27 26 26 25 26 24 24 24 25 25 25 24 24 24 24 24 23 22 19 22 21 20 20 19 19 19 18 18 18 19 20
29 29 26 25 26 25 26 28 29 28 28 28 27 26 25 25 25 23 22 24 24 24 25 24 24 24 24 24 23 22 21 21 21 19 19 19 19 18 18 18 18 19 20 21

GFSCGP_925_temp_375.txt.gz
Temp
26 26 26 29 28 31 30 29 29 30 32 32 31 31 30 29 29 29 27 27 27 27 29 30 30 31 30 29 29 28 27 27 26 26 25 25 25 25 25 25 26 26 26 26
27 28 28 31 30 30 29 29 29 30 32 32 30 31 31 29 30 30 30 28 29 27 27 28 29 30 30 30 29 28 28 28 27 27 27 25 26 26 27 27 26 26 26 26
28 31 30 30 30 30 30 30 30 30 33 31 31 30 31 31 30 30 30 30 30 29 27 28 27 28 29 29 29 29 29 28 28 27 26 26 26 26 27 27 27 27 26 26
28 30 31 31 31 31 29 32 33 33 30 29 31 29 30 30 29 31 31 30 30 29 29 28 28 28 29 30 30 30 30 29 29 28 28 27 25 25 25 26 27 27 27 26
31 31 32 32 34 33 32 35 33 33 29 29 30 29 29 30 31 30 30 31 31 31 30 29 29 29 29 29 30 30 30 30 30 29 28 26 25 26 26 26 27 27 27 27
31 32 32 32 35 34 36 34 30 27 27 28 29 29 29 29 30 31 31 31 32 32 31 30 31 30 30 29 29 29 29 29 29 28 28 26 26 26 25 25 25 26 26 27
31 32 32 33 34 34 33 29 28 30 28 28 27 29 30 32 30 32 31 31 32 32 31 29 29 29 30 30 29 29 28 28 29 27 27 27 26 26 25 25 25 25 26 26
30 31 34 35 34 34 33 30 28 30 28 29 30 30 32 32 31 33 34 31 30 30 30 29 30 30 30 30 30 29 29 28 27 27 27 27 26 25 25 25 26 26 27 27
29 30 32 33 35 34 34 32 30 26 26 28 28 29 33 32 31 30 30 30 30 30 30 31 31 30 30 30 30 30 29 29 28 27 27 26 25 25 24 23 22 24 25 27
30 29 32 33 34 36 35 32 32 27 30 31 28 30 29 29 30 30 29 28 28 29 29 27 26 27 29 29 30 30 29 27 27 27 26 25 24 23 21 22 22 22 20 25
30 28 31 32 33 34 33 33 26 25 25 27 27 28 29 27 29 28 27 26 26 27 27 27 27 29 30 30 28 28 28 28 28 27 27 24 23 23 23 23 21 19 20 22
29 28 30 31 33 34 33 34 28 28 30 23 25 27 29 26 27 27 26 26 26 26 26 26 26 28 29 30 29 27 25 25 24 24 23 23 24 25 25 23 24 23 24 22
30 29 28 32 32 33 34 34 26 24 24 27 27 27 30 26 26 26 26 26 25 25 25 24 23 21 22 23 23 23 23 22 23 24 24 24 23 23 24 24 23 22 24 24
28 27 30 30 32 32 34 34 32 29 27 26 25 28 30 28 27 26 26 26 25 23 22 21 20 19 20 21 22 23 23 23 23 23 23 23 23 22 22 22 22 21 22 23
30 29 29 30 29 33 34 33 33 34 29 31 27 27 27 27 26 27 27 25 24 23 22 21 20 19 21 21 22 23 24 24 24 24 24 24 23 20 20 22 22 21 21 23
27 30 30 33 32 34 31 30 29 28 27 26 25 28 28 27 25 25 24 24 23 23 23 22 22 21 21 22 23 24 24 24 24 24 23 23 22 22 22 21 22 22 22 21
28 28 28 31 29 31 29 28 29 28 27 27 27 27 27 27 26 25 23 23 23 23 23 22 22 21 23 24 25 25 24 24 23 23 23 23 22 22 23 23 22 22 22 22
26 25 23 27 28 29 28 29 28 27 26 26 26 27 27 26 25 23 24 23 23 23 23 22 22 23 24 25 25 25 25 25 24 24 24 23 23 22 22 22 22 22 21 21
25 24 24 26 25 27 30 29 30 28 28 27 27 27 28 27 25 25 25 24 23 23 22 23 24 24 24 24 23 23 23 23 23 23 23 23 22 22 21 21 21 21 21 21
26 24 27 24 29 29 28 30 29 29 26 26 26 26 27 26 24 22 25 24 23 24 23 23 24 23 23 23 22 22 21 20 21 21 22 22 22 22 21 21 20 20 20 19
24 23 24 23 26 26 24 26 28 29 27 26 26 26 26 24 22 23 24 24 24 24 24 24 24 23 21 22 21 20 20 21 21 21 21 21 21 20 20 20 20 19 18 18
27 25 24 21 26 28 25 28 30 24 24 25 26 25 23 23 24 24 24 24 23 22 23 23 21 21 21 21 20 19 19 20 19 19 19 20 20 20 20 19 19 18 17 16
28 26 25 24 24 23 22 24 23 23 24 25 23 23 23 24 23 23 22 21 20 20 20 21 20 20 21 21 20 18 18 18 18 18 18 19 19 19 19 18 17 16 16 16
27 23 22 23 25 25 25 25 25 25 24 23 23 24 24 23 22 21 19 19 18 20 20 19 19 18 18 19 18 17 16 16 16 16 17 17 17 17 18 17 16 15 16 16
25 23 21 21 24 24 25 26 26 24 24 24 24 24 23 22 21 19 19 18 18 19 19 19 18 17 17 17 16 16 16 15 15 15 16 16 15 15 15 15 15 15 16 16
22 22 22 21 21 22 23 24 25 24 23 22 22 21 21 21 20 19 18 18 19 19 19 17 17 16 16 15 15 14 14 14 14 14 14 14 14 14 15 15 15 17 16 17

GFSCGP_925_temp_378.txt.gz
Temp
26 27 27 27 28 30 29 29 29 29 31 31 30 30 28 27 27 27 26 25 25 26 27 28 28 28 28 28 27 27 26 26 25 24 24 23 23 24 24 25 25 25 25 26
26 26 29 30 30 29 29 28 28 29 31 30 30 30 29 27 28 28 28 27 27 27 26 26 28 28 28 29 28 27 27 27 26 25 25 24 24 25 26 26 26 25 25 25
27 29 30 29 30 29 28 28 28 30 31 30 30 29 30 29 29 29 28 28 28 28 27 26 26 28 28 28 28 28 28 28 27 26 25 24 24 24 24 24 25 25 25 25
27 28 30 29 29 29 28 30 30 31 29 29 30 28 29 28 28 29 30 28 28 28 27 26 26 27 28 29 29 29 29 28 28 27 25 25 24 23 24 25 26 26 26 26
31 28 29 30 30 31 31 32 30 31 28 29 29 28 28 29 29 29 28 29 30 28 28 28 27 28 30 29 29 30 29 28 28 27 27 25 24 24 25 25 26 26 26 26
29 31 31 31 33 32 33 31 28 26 26 28 28 28 28 28 29 30 30 29 30 29 28 29 29 29 29 30 29 29 28 29 28 27 26 26 25 25 24 25 26 26 26 26
27 28 30 32 33 32 31 30 29 29 28 28 25 28 28 31 31 30 31 31 29 29 28 28 28 27 29 29 29 29 29 28 28 28 27 26 25 24 24 23 22 23 23 23
28 31 32 33 34 33 30 29 28 30 28 28 27 29 31 29 28 29 32 30 29 29 28 27 28 29 29 29 28 29 29 29 27 27 26 25 25 24 23 24 24 22 22 22
28 30 32 33 33 33 32 30 28 25 25 27 27 28 30 28 28 28 28 27 26 26 26 26 26 28 29 29 29 29 29 28 27 27 27 26 26 25 24 24 24 24 24 27
30 29 31 32 33 33 33 29 30 26 29 30 27 28 28 27 27 27 26 26 26 26 26 26 25 27 28 28 27 27 27 27 27 27 27 27 25 24 23 24 23 23 24 26
28 28 30 31 33 32 31 30 24 24 24 27 27 28 26 25 25 27 25 25 24 24 24 24 23 24 24 23 23 24 24 24 25 26 25 25 24 23 22 22 23 24 24 24
28 26 28 31 32 32 32 32 27 27 29 22 25 27 26 25 26 26 25 24 24 23 22 22 21 21 21 21 21 21 22 23 22 23 22 21 22 22 22 22 23 22 21 20
28 27 28 31 31 32 32 30 24 23 23 25 27 26 27 25 25 24 24 23 22 22 22 20 20 20 20 21 21 22 22 22 23 23 22 22 22 23 22 21 21 21 21 20
28 26 29 28 31 30 34 33 29 28 27 25 25 26 27 27 26 25 24 23 22 21 21 20 19 19 21 23 24 24 24 23 23 23 22 21 22 22 22 21 21 20 21 22
30 30 28 29 29 30 31 30 32 33 29 31 28 25 25 25 25 25 24 23 23 22 22 21 20 20 21 23 24 25 25 25 24 24 22 22 22 22 22 22 22 20 19 20
26 30 28 32 32 32 30 29 29 27 26 25 25 27 26 24 24 24 23 23 22 23 23 22 21 21 21 22 23 24 25 25 25 24 24 24 23 22 22 22 21 21 21 21
28 28 28 30 28 31 31 28 29 27 26 26 28 26 25 25 24 23 22 22 22 22 23 22 22 22 23 25 25 25 25 25 24 24 24 24 23 22 22 21 21 21 21 21
25 25 25 28 29 31 29 27 27 26 26 25 25 24 25 24 24 23 22 22 22 22 23 22 22 23 24 24 24 23 23 22 22 22 22 22 22 22 22 21 21 21 21 20
25 23 23 27 25 27 29 28 28 31 28 27 25 25 24 23 23 24 24 23 22 23 22 22 23 23 22 22 22 21 21 21 21 21 20 20 19 19 19 21 20 20 19 19
25 24 27 23 28 27 27 30 28 28 27 25 25 25 24 24 24 22 24 24 23 23 23 23 23 22 21 21 21 20 19 19 18 18 18 18 19 18 18 20 19 19 18 18
24 22 25 24 27 27 27 26 28 28 26 25 25 24 24 23 22 22 23 23 23 22 22 22 21 21 20 20 19 18 18 17 17 17 17 18 18 18 18 17 18 18 17 17
27 25 24 22 26 30 24 27 28 24 24 24 24 23 22 22 22 23 23 22 20 19 20 21 21 21 20 19 18 17 16 17 16 16 17 17 17 16 16 16 16 16 15 15
28 25 25 25 24 22 22 23 23 22 23 24 22 22 22 22 23 22 20 19 19 20 20 20 19 19 19 18 16 15 15 15 16 15 15 15 15 15 15 15 15 15 15 15
25 21 21 23 24 24 24 24 24 24 23 23 22 22 23 22 21 19 18 18 18 19 19 18 18 17 16 16 15 15 15 14 14 14 14 14 14 14 14 15 15 15 15 15
23 23 20 21 23 24 25 25 23 23 23 22 22 22 22 20 19 18 18 18 18 18 18 17 16 15 15 14 14 14 14 13 13 13 13 14 14 14 14 14 15 14 15 15
21 21 22 23 21 21 22 23 23 22 22 21 21 21 21 20 19 19 18 18 18 17 17 16 15 14 14 14 13 13 13 13 12 12 13 13 13 13 13 14 15 15 15 15